This is the latest recevied weather packets stored in our database for station/object W6ORV. If no packets are shown the sender has not sent any weather packets the latest 10 day(s).
| Time | Temp. | Humidity | Pressure | Rain* | Wind** | Luminosity | Snow |
|---|---|---|---|---|---|---|---|
| 1778201592 | 28.89° C | 46% | 4298.9 hPa | 0 mm | - | 260 W/m² | - |
| 1778201289 | 29.44° C | 44% | 4298.8 hPa | 0 mm | - | 252 W/m² | - |
| 1778200984 | 30° C | 45% | 4298.7 hPa | 0 mm | - | 249 W/m² | - |
| 1778200681 | 30.56° C | 42% | 4298.8 hPa | 0 mm | - | 277 W/m² | - |
| 1778200379 | 30.56° C | 43% | 4298.9 hPa | 0 mm | - | 317 W/m² | - |
| 1778200075 | 31.11° C | 42% | 4298.9 hPa | 0 mm | - | 335 W/m² | - |
| 1778199772 | 31.67° C | 39% | 4298.8 hPa | 0 mm | - | 361 W/m² | - |
| 1778199468 | 31.67° C | 40% | 4298.8 hPa | 0 mm | - | 388 W/m² | - |
| 1778199164 | 31.67° C | 41% | 4298.7 hPa | 0 mm | - | 391 W/m² | - |
| 1778198860 | 32.22° C | 39% | 4298.7 hPa | 0 mm | - | 416 W/m² | - |
| 1778198557 | 31.67° C | 39% | 4298.6 hPa | 0 mm | - | 406 W/m² | - |
| 1778198254 | 31.67° C | 41% | 4298.4 hPa | 0 mm | - | 420 W/m² | - |
| 1778197951 | 31.67° C | 40% | 4298.6 hPa | 0 mm | - | 438 W/m² | - |
| 1778197648 | 31.11° C | 40% | 4298.8 hPa | 0 mm | - | 472 W/m² | - |
| 1778197345 | 32.22° C | 41% | 4298.5 hPa | 0 mm | - | 485 W/m² | - |
| 1778197041 | 32.78° C | 40% | 4298.7 hPa | 0 mm | - | 495 W/m² | - |
| 1778196739 | 32.22° C | 37% | 4298.7 hPa | 0 mm | - | 494 W/m² | - |
| 1778196436 | 32.22° C | 38% | 4298.6 hPa | 0 mm | - | 539 W/m² | - |
| 1778196134 | 33.33° C | 37% | 4298.9 hPa | 0 mm | - | 517 W/m² | - |
| 1778195830 | 32.78° C | 33% | 4298.9 hPa | 0 mm | - | 501 W/m² | - |
| 1778195527 | 32.22° C | 36% | 4298.8 hPa | 0 mm | - | 581 W/m² | - |
| 1778195224 | 32.78° C | 34% | 4298.8 hPa | 0 mm | - | 587 W/m² | - |
| 1778194921 | 33.33° C | 34% | 4298.9 hPa | 0 mm | - | 599 W/m² | - |
| 1778194620 | 33.33° C | 34% | 4298.9 hPa | 0 mm | - | 615 W/m² | - |
| 1778194317 | 32.78° C | 34% | 4299.1 hPa | 0 mm | - | 632 W/m² | - |
* Rain latest hour (hover to see other rain measurements)
** Current wind speed in m/s (hover to see current wind gust speed)